Location: Stockholm
(59.3330°N, 18.0500°E)
Time: 13:35:55
(UTC+02:00)

FO-29 - Visible Passes

Search period start: 28 March 2023 00:00
Search period end: 07 April 2023 00:00
Orbit: 801 x 1320 km, 98.5° (Epoch: 28 March)

Date Brightness Start Highest point End Pass type
(mag) Time Alt. Az. Time Alt. Az. Time Alt. Az.
28 Mar 12.2 04:20:02 10° NNE 04:26:17 25° E 04:32:12 10° SE visible
29 Mar 12.7 03:26:26 10° NE 03:29:49 13° ENE 03:33:06 10° E visible
29 Mar 11.4 05:09:44 10° NNE 05:17:09 43° E 05:24:01 10° SSE visible
30 Mar 12.3 04:15:07 10° NNE 04:21:10 24° E 04:26:52 10° SE visible
31 Mar 12.8 03:21:47 10° NE 03:24:38 12° ENE 03:27:26 10° E visible
31 Mar 11.4 05:04:47 10° NNE 05:12:04 41° E 05:18:48 10° SSE visible
01 Apr 12.3 04:10:13 10° NNE 04:16:03 23° ENE 04:21:30 10° SE visible
02 Apr 12.8 03:17:16 10° NE 03:19:28 11° ENE 03:21:37 10° E visible
02 Apr 11.5 04:59:50 10° NNE 05:06:59 39° E 05:13:33 10° SSE visible
03 Apr 12.3 04:05:20 10° NNE 04:10:55 21° ENE 04:16:07 10° SE visible
04 Apr 12.9 03:13:05 10° NE 03:14:16 10° ENE 03:15:26 10° ENE visible
04 Apr 11.6 04:54:54 10° NNE 05:01:53 37° E 05:08:16 10° SSE visible
05 Apr 12.3 04:00:28 10° NNE 04:05:46 20° ENE 04:10:42 10° ESE visible
06 Apr 11.7 04:49:57 10° NNE 04:56:47 35° E 05:02:59 10° SSE visible
